Regional Weather Roundup
Issued by NWS

Home | Current Version | Previous Version | Text Only | Print | Product List | Glossary Off
Versions: 1 2 3 4 5 6 7 8 9 10 11 12 13 14 15 16 17 18 19 20 21 22 23 24 25 26 27 28

000
ASUS45 KPSR 230510
RWRAZ

ARIZONA HOURLY REGIONAL WEATHER ROUNDUP
NATIONAL WEATHER SERVICE PHOENIX AZ
1000 PM MST FRI SEP 22 2017

NOTE: FAIR INDICATES FEW OR NO CLOUDS BELOW 12,000 FEET WITH NO
SIGNIFICANT WEATHER AND/OR OBSTRUCTIONS TO VISIBILITY.

AZZ001>003-036-230600-
NORTHWEST ARIZONA

CITY           SKY/WX    TMP DP  RH WIND       PRES   REMARKS
BULLHEAD CITY  CLEAR     72  23  16 SW5       29.69R
KINGMAN        CLEAR     52  22  30 E6        29.81S
$$

AZZ004>008-015-016-018-230600-
NORTH CENTRAL ARIZONA

CITY           SKY/WX    TMP DP  RH WIND       PRES   REMARKS
GRAND CANYON   CLEAR     33  14  45 CALM      29.92F
WILLIAMS       CLEAR     46  10  23 S5        29.92S
PRESCOTT       CLEAR     48  24  39 SW5       29.86S
FLAGSTAFF      PTCLDY    45  30  55 CALM      29.94S
PAYSON           N/A     61  39  44 W5        29.88S
PAGE           CLEAR     63  22  20 W6        29.79R
$$

AZZ009>014-017-230600-
NORTHEAST ARIZONA

CITY           SKY/WX    TMP DP  RH WIND       PRES   REMARKS
WINSLOW        CLEAR     54  36  50 SW7       29.85S
SAINT JOHNS    CLEAR     60  42  51 SW3       29.90R
WINDOW ROCK    PTCLDY    57  28  33 SW5       29.96R
SHOW LOW       CLEAR     57  39  51 S8        29.93F
$$

AZZ540-542>544-546-548-230600-
GREATER PHOENIX AREA

CITY           SKY/WX    TMP DP  RH WIND       PRES   REMARKS
PHOENIX        PTCLDY    79  18  10 W9        29.66S
BUCKEYE        CLEAR     68  27  21 SW5       29.69R
LUKE AFB       CLEAR     75  21  13 SW9       29.66S
DEER VALLEY    PTCLDY    77  21  12 W6        29.68S
SCOTTSDALE     PTCLDY    78  30  17 CALM      29.70S
MESA-GATEWAY   CLEAR     75  30  19 W6        29.70S
$$

AZZ539-553-230600-
SOUTHWEST MARICOPA COUNTY AND PINAL COUNTY

CITY           SKY/WX    TMP DP  RH WIND       PRES   REMARKS
CASA GRANDE    NOT AVBL
GILA BEND      FAIR      74  18  12 SW6       29.68S
$$

AZZ503-504-507>509-230600-
SOUTHEAST ARIZONA

CITY           SKY/WX    TMP DP  RH WIND       PRES   REMARKS
TUCSON         CLOUDY    77  43  29 NW7       29.79R
DAVIS-MONTHAN  PTCLDY    76  43  31 W7        29.77R
NOGALES        CLEAR     65  49  56 SE3       29.86R
SIERRA VISTA   CLEAR     68  47  47 W5        29.90S
DOUGLAS        PTCLDY    72  49  44 VRB5      29.87R
SAFFORD        PTCLDY    79  43  27 NW8       29.75R
$$

AZZ532-230600-
SOUTHWEST ARIZONA

CITY           SKY/WX    TMP DP  RH WIND       PRES   REMARKS
YUMA           CLEAR     72  37  28 W12       29.69R
$$

CAZ041-043-047-048-061-525>527-560>570-230600-
SOUTHERN CALIFORNIA

CITY           SKY/WX    TMP DP  RH WIND       PRES   REMARKS
DOWNTOWN L.A.  CLEAR     64  54  69 CALM      29.81S
L.A. AIRPORT   PTCLDY    64  54  69 W10       29.81F
SAN DIEGO      PTCLDY    67  54  63 NW9       29.85S
BURBANK        CLEAR     64  43  46 SE5       29.81F
ONTARIO        CLEAR     62  51  67 SW7       29.82S
RIVERSIDE      CLEAR     62  53  72 W5        29.83S
PALM SPRINGS   CLEAR     73  47  39 NW15G23   29.72S
EL CENTRO NAS  CLEAR     71  45  39 W26       29.72R
IMPERIAL       CLEAR     71  49  45 W20       29.70R
BLYTHE         CLEAR     72  23  16 NW7       29.68S
NEEDLES        CLEAR     76  20  12 W10       29.69S
$$

NVZ020-UTZ003-230600-
SOUTHERN NEVADA-UTAH

CITY           SKY/WX    TMP DP  RH WIND       PRES   REMARKS
LAS VEGAS      CLEAR     69  24  18 W5        29.76R
SALT LAKE CITY CLEAR     47  40  76 CALM      29.97R
$$

NMZ009-TXZ055-230600-
NEW MEXICO-WEST TEXAS

CITY           SKY/WX    TMP DP  RH WIND       PRES   REMARKS
ALBUQUERQUE    LGT RAIN  72  35  25 S8        29.90R
EL PASO        PTCLDY    85  40  20 W12       29.82F
$$


........................KEY........................
SKY/WX - SKY CONDITION/WEATHER
TMP    - TEMPERATURE IN FAHRENHEIT
DP     - DEW POINT IN FAHRENHEIT
RH     - RELATIVE HUMIDITY IN PERCENT
WIND   - DIRECTION AND SPEED IN MILES PER HOUR (MPH)
VRB    - VARIABLE WIND DIRECTION
PRES   - MEAN SEA LEVEL PRESSURE IN INCHES OF MERCURY
         F - FALLING PRESSURE   R - RISING PRESSURE
         S - STEADY PRESSURE
VSB    - VISIBILITY IN MILES
HX     - HEAT INDEX IN FAHRENHEIT
WCI    - WIND CHILL INDEX IN FAHRENHEIT
TC     - TEMPERATURE IN CELSIUS WHICH IS ALSO KNOWN AS
         TEMPERATURE IN CENTIGRADE
AFB    - AIR FORCE BASE
         LUKE AFB IS LUKE AIR FORCE BASE
         DAVIS-MONTHAN IS DAVIS-MONTHAN AIR FORCE BASE
NAS    - NAVAL AIR STATION
         EL CENTRO NAS IS EL CENTRO NAVAL AIR STATION
N/A    - NOT AVAILABLE





USA.gov is the U.S. government's official web portal to all federal, state and local government web resources and services.